SKY MEXICO-1

Last updated on Thu Nov 21 2024 00:02:43 GMT+0000 (Coordinated Universal Time)

1 40664U 15026B 24324.77931286 -.00000233 00000+0 00000+0 0 9999 2 40664 0.0316 27.5782 0002593 225.0492 8.4651 1.00271047 34694
UTC large
Height (km)
Speed (km/s)
/
Latitude / Longitude
Inclination (degrees)
Orbital Period (minutes)
Azimuth
Elevation
Range (km)
Doppler Factor

Next 0 passes for location: London (51.5072 / 0.1276)

Sorry there are no passes over London.